Terminal Aerodrome Forecast
Issued by NWS Glasgow, MT

Home | Current Version | Previous Version | Text Only | Print | Product List | Glossary On
Versions: 1 2 3 4 5 6 7 8 9 10 11 12 13 14
000
FTUS45 KGGW 192300
TAFGGW
TAF
KGGW 192320Z 2000/2024 12011G20KT P6SM SKC
     FM200200 12010KT P6SM SCT200
     FM201300 29014KT P6SM BKN100=

USA.gov is the U.S. government's official web portal to all federal, state and local government web resources and services.